Location: Little Maitland River
(43.8022°N, 81.1549°W)
Time: 05:08:05
(UTC+00:00)

Tiangong - Visible Passes

Search period start: 08 March 2026 00:00
Search period end: 18 March 2026 00:00
Orbit: 381 x 391 km, 41.5° (Epoch: 7 March)

Date Brightness Start Highest point End Pass type
(mag) Time Alt. Az. Time Alt. Az. Time Alt. Az.
9 Mar 0.7 11:15:19 10° S 11:17:02 14° SSE 11:18:46 10° ESE visible
11 Mar 0.0 10:52:28 10° SSW 10:54:58 21° SSE 10:57:28 10° ESE visible
12 Mar 0.4 09:55:11 14° SSE 09:55:45 14° SSE 09:57:30 10° ESE visible
13 Mar -0.7 10:30:50 17° SW 10:32:43 30° SSE 10:35:35 10° E visible
14 Mar 0.1 09:34:08 19° SE 09:34:08 19° SE 09:35:51 10° ESE visible
14 Mar -1.5 11:06:44 10° WSW 11:09:50 51° S 11:12:57 10° E visible
15 Mar -1.3 10:09:33 34° SSW 10:10:18 41° SSE 10:13:20 10° E visible
16 Mar 0.6 09:12:40 17° ESE 09:12:40 17° ESE 09:13:37 10° E visible
16 Mar -1.8 10:44:52 15° WSW 10:47:21 56° S 10:50:29 10° E visible
17 Mar -1.6 09:47:55 50° SSE 09:47:55 50° SSE 09:50:48 10° E visible
